Wind_Speed
45 44 43 41 40 41 42 40 39 36 35 32 32 33 32 30 28 26 26 26 27 27 28 28 28 29 29 30 30 31 32 32 33 34 35 36 37 39 41 42 43 44 46 46
45 45 45 43 41 40 40 39 37 35 33 29 31 33 32 30 28 27 27 27 27 28 28 28 28 29 29 30 30 31 32 33 34 34 35 37 38 40 41 42 44 45 45 46
44 43 44 45 40 38 37 36 36 35 29 29 32 32 31 29 28 28 28 27 27 27 27 28 28 29 29 30 30 31 32 32 33 34 36 37 38 40 41 43 43 44 45 47
44 44 46 41 38 37 36 34 34 33 30 31 31 30 29 28 28 27 27 27 27 26 27 27 28 28 29 30 30 31 32 33 34 35 37 38 39 41 42 42 43 45 46 48
45 46 44 40 37 36 35 33 31 31 30 29 30 29 28 27 27 26 26 26 26 26 27 27 28 28 29 30 31 32 33 34 35 36 37 38 40 41 42 43 44 46 48 49
46 46 45 39 36 34 34 33 29 30 29 29 30 29 26 27 26 26 26 26 26 26 27 27 27 28 29 30 31 33 33 34 35 36 38 39 40 41 42 44 45 47 49 51
45 44 41 38 35 33 34 29 28 29 29 29 29 27 26 27 26 26 26 26 26 27 27 27 28 29 30 31 31 33 34 35 36 37 39 40 40 42 43 45 46 48 50 52
44 42 39 34 32 31 30 30 29 28 28 28 27 27 26 26 26 26 26 27 27 27 27 28 29 29 30 31 32 33 34 35 37 38 39 40 41 43 44 46 48 49 51 54
42 37 33 31 30 29 30 31 30 29 28 28 27 27 26 26 26 26 26 27 27 28 28 29 29 30 30 31 33 34 35 36 37 38 39 41 42 44 45 47 49 51 54 56
41 38 34 31 30 30 30 31 30 29 28 28 27 27 26 26 26 26 27 27 28 29 29 29 29 30 31 32 34 34 35 36 37 39 40 42 43 45 46 49 52 54 56 58
39 37 35 33 31 31 31 31 29 28 28 28 28 27 27 27 27 27 27 28 28 28 29 29 30 31 32 33 34 35 36 37 38 40 41 43 44 46 49 51 54 56 59 61
35 33 33 31 31 32 31 30 29 29 29 28 28 27 27 27 27 28 29 29 29 29 30 31 31 32 33 34 35 36 37 38 40 41 43 44 46 49 51 54 57 59 61 63
34 33 33 32 32 31 30 29 29 30 29 29 28 28 28 28 28 29 29 29 29 30 31 31 32 33 34 35 36 37 38 40 41 43 45 47 49 51 54 56 58 60 63 65
33 33 33 32 31 31 30 29 29 30 30 30 29 29 29 29 29 29 29 30 30 31 32 32 33 34 35 36 37 38 40 41 43 45 47 49 52 54 56 59 60 62 65 67
33 32 31 31 31 30 30 30 30 30 30 30 30 30 30 30 29 30 30 31 31 32 32 33 34 35 36 37 38 40 41 43 45 47 49 51 54 57 59 61 63 65 66 68
33 32 31 31 30 30 30 30 30 30 30 30 30 30 30 30 30 30 31 31 32 33 33 34 35 36 37 39 40 41 43 44 46 49 51 54 57 60 62 63 65 67 68 69
33 31 30 30 30 31 31 31 31 31 31 30 30 30 30 30 30 31 32 32 33 33 34 35 36 38 39 40 41 42 44 46 49 51 54 57 60 62 63 65 67 68 69 70
32 31 30 30 30 31 31 31 31 32 32 32 31 31 31 31 31 32 32 33 33 34 35 36 37 38 39 40 42 44 46 48 51 54 57 60 62 63 65 66 68 68 69 70
32 32 31 31 31 30 31 31 32 32 32 32 31 31 31 32 32 32 33 33 34 35 36 37 38 39 40 42 44 46 48 51 53 56 59 61 63 65 66 67 67 68 69 68
32 33 33 32 32 31 31 31 32 32 32 31 31 31 32 32 32 33 33 34 35 36 37 38 39 40 42 43 45 48 50 53 55 58 61 63 64 65 66 66 67 67 66 65
33 32 32 32 31 31 31 31 32 32 32 32 32 32 32 32 33 33 34 34 35 36 37 39 40 41 43 45 48 50 52 55 57 60 62 63 65 65 65 65 66 65 64 61
33 32 32 31 31 31 31 31 32 32 32 32 32 32 32 32 33 33 34 35 36 37 38 40 41 43 45 47 49 51 54 56 58 61 63 64 65 64 64 65 65 63 60 57
32 32 32 31 31 31 31 32 32 31 31 31 32 32 32 33 33 34 34 35 36 38 39 41 43 45 47 49 51 53 55 58 60 62 64 64 64 64 64 64 62 59 56 52
31 31 31 31 31 30 30 31 31 31 31 31 32 32 33 33 34 34 35 36 38 39 41 43 44 46 48 50 52 54 57 59 61 63 64 63 63 63 63 61 57 54 51 48
30 31 31 32 31 31 31 31 31 31 31 31 32 32 33 33 34 35 36 38 39 41 42 44 46 47 49 51 53 56 58 60 62 63 63 62 62 62 60 56 53 50 47 44
30 31 31 31 31 31 31 31 31 31 31 31 32 32 33 34 35 36 38 39 40 42 43 45 47 48 51 53 55 57 59 61 62 63 62 62 61 58 54 51 49 47 44 41
29 29 29 29 30 30 30 30 31 31 31 32 32 33 34 35 36 37 39 40 41 42 44 46 48 50 52 54 56 58 60 61 62 61 61 60 57 52 49 47 46 43 41 38
Wind_Direction
230 234 237 237 238 240 243 247 251 255 258 261 266 269 271 273 275 275 275 274 274 276 277 278 279 279 280 281 282 282 283 284 285 285 286 288 289 290 292 293 294 295 296 297
226 230 235 237 236 237 241 245 250 253 256 259 261 266 270 273 274 274 274 275 276 277 278 278 279 281 282 283 283 284 285 286 287 287 288 290 291 292 293 294 295 296 297 298
226 229 234 236 237 239 242 246 251 254 256 255 258 263 268 271 273 274 274 275 276 278 279 279 280 282 283 284 285 286 286 287 288 289 290 291 293 294 295 295 296 297 298 299
227 229 233 235 237 241 244 246 250 254 253 255 258 261 265 268 271 273 273 275 276 278 279 280 280 282 283 285 286 287 287 288 290 291 292 293 294 295 296 297 297 298 299 300
227 231 234 234 236 240 245 247 249 252 253 254 257 260 264 267 269 271 272 274 275 276 279 280 282 283 284 286 287 288 289 290 291 292 293 294 296 297 297 298 299 299 300 301
227 231 234 236 238 241 245 248 249 251 252 255 258 260 263 266 268 270 272 273 275 277 279 282 284 285 286 287 289 290 291 292 292 293 294 296 297 298 298 299 300 300 301 302
227 232 236 237 239 241 245 249 250 251 253 256 259 261 262 265 267 269 270 272 275 277 280 282 284 286 288 289 290 291 292 293 294 295 296 297 298 299 299 300 301 302 302 303
229 232 235 239 242 243 247 248 250 252 254 257 259 260 263 265 267 269 270 272 274 277 280 283 285 287 289 290 291 292 293 294 295 296 297 298 299 300 301 302 302 303 304 305
232 235 239 240 242 243 244 247 250 252 255 257 260 261 262 264 266 268 271 272 274 277 281 284 286 288 290 291 293 294 295 296 297 298 299 300 301 302 302 303 304 304 305 306
230 232 237 240 242 244 246 247 249 251 254 255 258 260 261 263 266 268 270 273 276 279 282 284 287 289 291 292 294 295 296 297 298 299 301 302 303 304 304 305 305 306 306 307
229 232 236 240 242 244 246 247 249 251 254 256 257 259 261 264 266 268 270 274 277 279 282 285 287 289 291 293 294 296 297 298 299 301 302 303 304 305 306 307 307 308 308 309
230 234 237 239 240 243 245 247 249 251 254 256 257 258 261 264 266 269 272 275 277 279 282 285 287 289 291 293 295 297 297 299 300 301 303 304 305 306 308 308 309 309 310 310
228 231 234 236 238 241 243 246 249 251 253 255 256 258 261 264 267 270 273 275 277 280 283 286 288 290 292 294 296 297 298 300 301 302 304 305 306 307 309 309 310 311 311 311
227 231 234 235 238 241 244 247 249 251 254 255 257 259 262 264 267 270 273 275 278 281 284 286 288 291 293 295 296 298 299 301 302 304 305 306 307 309 310 310 311 311 312 312
228 232 234 236 239 243 245 248 250 253 255 256 258 260 262 265 267 270 273 276 279 281 284 287 289 291 293 295 297 299 300 302 304 305 307 308 309 310 311 312 312 312 312 313
230 233 236 239 242 244 247 249 252 254 256 258 259 261 262 265 268 271 274 277 279 282 285 287 290 292 294 296 298 300 301 303 305 307 308 309 311 311 312 312 313 313 314 314
231 234 239 243 245 246 248 251 253 254 256 258 260 262 263 266 269 272 274 276 279 282 285 288 290 292 295 297 299 301 303 305 307 308 310 311 312 312 313 313 314 314 315 315
231 236 241 243 244 246 248 252 254 255 256 258 260 262 264 266 269 272 274 277 280 283 285 288 291 293 296 298 300 302 304 306 308 310 311 312 313 313 314 314 315 316 316 316
234 238 240 242 245 248 251 253 254 255 256 258 261 263 264 267 269 272 275 278 281 283 286 289 291 294 297 299 301 304 306 308 309 311 313 313 314 314 315 315 316 317 317 317
236 239 242 244 246 249 252 253 254 255 256 258 260 263 265 267 269 272 275 278 281 284 287 290 292 295 298 300 303 305 307 309 311 312 314 314 315 315 316 317 317 318 318 318
239 241 243 245 246 249 251 253 254 255 256 258 261 263 265 267 270 273 276 279 282 285 288 290 293 296 299 302 304 306 308 310 312 313 315 315 316 316 317 318 318 319 318 318
238 240 242 245 247 249 251 252 253 254 257 259 262 264 266 268 270 274 277 280 283 286 288 292 295 298 301 303 306 308 310 312 313 315 315 316 317 317 317 318 319 319 319 319
237 238 240 243 247 249 250 250 252 254 257 259 262 264 266 269 272 275 278 281 284 287 290 293 296 299 302 304 307 309 311 313 314 315 316 317 317 317 318 318 318 319 319 319
236 237 239 242 246 248 249 250 252 255 257 260 262 264 267 270 273 276 279 283 286 289 292 295 298 301 303 306 308 310 312 314 315 316 317 317 317 317 318 318 318 319 319 319
235 236 239 242 244 247 249 250 252 255 257 260 263 266 268 272 275 278 282 285 288 291 294 297 299 302 304 307 309 311 313 314 316 317 317 317 317 318 318 318 318 319 319 319
235 237 240 242 243 246 248 250 252 255 258 261 263 267 270 274 277 280 283 286 289 292 295 298 301 303 306 308 310 312 314 315 316 317 317 317 318 318 318 318 319 319 319 319
235 237 239 241 242 245 247 250 252 255 258 261 265 269 273 276 279 282 285 288 291 294 297 300 302 305 307 309 311 312 314 315 317 317 317 318 318 318 318 318 319 319 318 318
Height
5649 5655 5659 5665 5670 5674 5677 5681 5686 5691 5693 5696 5696 5697 5698 5700 5701 5702 5702 5702 5702 5701 5701 5701 5700 5699 5698 5697 5696 5695 5694 5692 5690 5689 5686 5684 5682 5679 5676 5672 5669 5665 5661 5656
5640 5645 5650 5654 5660 5665 5669 5674 5678 5682 5686 5689 5689 5689 5690 5692 5693 5694 5694 5694 5694 5694 5693 5693 5692 5691 5690 5689 5688 5687 5685 5684 5682 5680 5677 5675 5672 5669 5666 5662 5658 5654 5650 5645
5631 5637 5640 5645 5653 5658 5663 5667 5671 5674 5680 5681 5681 5682 5683 5685 5685 5686 5686 5686 5686 5686 5685 5685 5684 5683 5682 5681 5680 5678 5677 5675 5673 5671 5668 5666 5663 5659 5656 5652 5648 5644 5639 5634
5623 5629 5630 5642 5648 5651 5655 5660 5664 5667 5670 5672 5674 5675 5676 5677 5678 5678 5678 5678 5678 5678 5678 5677 5676 5675 5674 5673 5672 5670 5668 5666 5664 5662 5659 5656 5653 5649 5646 5642 5638 5633 5628 5623
5614 5618 5625 5633 5640 5645 5648 5652 5657 5659 5662 5664 5665 5667 5669 5669 5670 5670 5671 5671 5671 5670 5670 5669 5668 5667 5666 5665 5664 5662 5660 5658 5655 5652 5649 5646 5643 5639 5635 5631 5627 5622 5617 5612
5606 5611 5617 5628 5634 5638 5641 5644 5650 5651 5654 5656 5657 5659 5662 5662 5662 5662 5663 5663 5663 5663 5662 5661 5661 5659 5658 5657 5655 5653 5651 5648 5646 5643 5640 5637 5633 5629 5625 5621 5616 5611 5606 5600
5598 5604 5611 5620 5626 5630 5635 5641 5643 5644 5646 5648 5650 5652 5654 5653 5654 5655 5655 5655 5655 5655 5654 5654 5653 5651 5650 5649 5647 5644 5642 5639 5637 5634 5630 5627 5623 5619 5614 5610 5605 5600 5594 5588
5591 5598 5608 5614 5619 5624 5629 5631 5634 5636 5638 5641 5642 5644 5645 5646 5646 5647 5647 5647 5647 5647 5646 5645 5644 5643 5642 5640 5638 5636 5633 5630 5627 5624 5620 5616 5613 5608 5603 5599 5593 5588 5582 5575
5589 5597 5603 5608 5613 5617 5620 5623 5626 5628 5631 5633 5635 5636 5637 5638 5639 5639 5639 5639 5639 5639 5638 5637 5636 5635 5633 5631 5629 5627 5624 5621 5617 5614 5610 5606 5602 5597 5592 5587 5581 5575 5569 5562
5581 5589 5595 5601 5605 5609 5612 5615 5618 5621 5623 5625 5627 5628 5629 5630 5631 5631 5632 5632 5632 5631 5630 5629 5628 5626 5625 5622 5620 5617 5615 5611 5608 5604 5600 5596 5591 5586 5581 5575 5569 5562 5555 5548
5574 5581 5587 5592 5598 5601 5604 5607 5610 5613 5615 5617 5619 5621 5622 5623 5623 5624 5624 5624 5623 5623 5622 5621 5619 5618 5616 5613 5611 5608 5605 5602 5598 5594 5590 5585 5580 5575 5569 5563 5555 5548 5541 5533
5569 5576 5581 5586 5590 5593 5596 5599 5602 5605 5607 5609 5611 5612 5614 5615 5615 5616 5616 5616 5615 5615 5614 5612 5611 5609 5606 5604 5602 5599 5595 5592 5588 5584 5579 5575 5569 5564 5556 5550 5542 5533 5525 5517
5561 5567 5572 5577 5581 5584 5588 5591 5594 5597 5599 5601 5603 5604 5605 5606 5607 5607 5607 5607 5607 5606 5605 5604 5602 5600 5597 5595 5592 5589 5585 5582 5578 5573 5569 5563 5558 5552 5545 5538 5528 5519 5510 5501
5554 5559 5564 5569 5573 5577 5580 5583 5586 5589 5591 5593 5594 5596 5597 5598 5598 5599 5599 5598 5598 5597 5596 5594 5593 5590 5588 5585 5582 5579 5575 5571 5567 5562 5557 5551 5545 5538 5531 5524 5517 5507 5497 5486
5547 5553 5558 5562 5565 5569 5572 5575 5578 5581 5583 5585 5586 5588 5589 5589 5590 5590 5590 5590 5589 5588 5587 5585 5583 5581 5578 5575 5572 5569 5565 5560 5556 5551 5545 5539 5532 5525 5517 5509 5501 5492 5483 5472
5541 5545 5550 5554 5558 5562 5565 5568 5570 5573 5575 5576 5578 5579 5580 5581 5581 5581 5581 5580 5580 5578 5577 5575 5573 5571 5568 5565 5562 5558 5554 5549 5544 5539 5533 5526 5519 5511 5503 5494 5485 5476 5466 5455
5534 5538 5543 5547 5550 5554 5556 5559 5562 5564 5566 5568 5569 5570 5571 5572 5572 5572 5572 5571 5570 5569 5568 5566 5564 5561 5558 5555 5551 5547 5543 5538 5532 5526 5520 5513 5505 5496 5488 5479 5469 5460 5449 5438
5527 5531 5535 5539 5542 5545 5548 5550 5553 5555 5557 5559 5560 5561 5562 5563 5563 5563 5562 5562 5561 5559 5558 5556 5554 5551 5548 5544 5540 5536 5531 5526 5520 5514 5507 5499 5490 5482 5472 5463 5453 5443 5433 5422
5519 5523 5527 5531 5534 5537 5539 5542 5544 5547 5549 5550 5552 5552 5553 5554 5554 5554 5553 5552 5551 5550 5548 5546 5543 5540 5537 5533 5529 5525 5520 5514 5507 5500 5493 5485 5476 5467 5457 5447 5437 5427 5417 5406
5511 5515 5519 5522 5525 5528 5531 5533 5535 5538 5540 5541 5542 5543 5544 5544 5544 5544 5544 5543 5542 5540 5538 5536 5533 5530 5526 5522 5518 5513 5507 5501 5494 5487 5479 5470 5461 5452 5442 5432 5422 5412 5401 5390
5503 5507 5510 5514 5517 5520 5522 5525 5527 5529 5531 5532 5533 5534 5535 5535 5535 5534 5534 5533 5531 5530 5528 5525 5522 5519 5515 5511 5506 5500 5494 5488 5481 5473 5465 5456 5447 5437 5427 5417 5407 5396 5386 5376
5495 5498 5502 5505 5508 5511 5513 5516 5518 5520 5522 5523 5524 5525 5525 5525 5525 5525 5524 5523 5521 5519 5517 5514 5511 5508 5504 5499 5494 5488 5481 5475 5467 5459 5450 5441 5432 5422 5412 5403 5393 5382 5373 5363
5486 5490 5493 5496 5499 5502 5505 5507 5509 5511 5513 5514 5515 5515 5516 5516 5515 5515 5514 5513 5511 5509 5506 5504 5500 5496 5492 5487 5481 5475 5468 5461 5453 5445 5436 5427 5417 5408 5398 5389 5379 5369 5360 5351
5478 5481 5485 5488 5491 5493 5496 5498 5500 5502 5503 5504 5505 5506 5506 5506 5506 5505 5504 5502 5500 5498 5495 5492 5488 5484 5479 5474 5468 5462 5455 5448 5440 5431 5422 5412 5403 5393 5384 5375 5365 5357 5348 5341
5469 5473 5476 5479 5482 5485 5487 5489 5491 5492 5494 5495 5495 5496 5496 5496 5496 5495 5493 5492 5490 5487 5484 5480 5476 5472 5467 5461 5455 5449 5442 5434 5425 5417 5407 5398 5389 5380 5370 5361 5353 5346 5338 5331
5461 5465 5468 5471 5474 5476 5478 5480 5482 5483 5485 5485 5486 5486 5486 5486 5485 5484 5483 5481 5478 5475 5472 5468 5464 5459 5454 5448 5442 5435 5428 5420 5411 5402 5393 5384 5375 5366 5358 5350 5342 5335 5328 5322
5453 5457 5460 5462 5465 5467 5469 5471 5473 5474 5475 5476 5476 5476 5476 5476 5475 5473 5472 5469 5467 5464 5460 5456 5451 5447 5441 5435 5429 5422 5414 5406 5397 5389 5380 5371 5362 5354 5346 5339 5333 5326 5320 5314